MDT,Max TemperatureF,Mean TemperatureF,Min TemperatureF,Max Dew PointF,MeanDew PointF,Min DewpointF,Max Humidity, Mean Humidity, Min Humidity, Max Sea Level PressureIn, Mean Sea Level PressureIn, Min Sea Level PressureIn, Max VisibilityMiles, Mean VisibilityMiles, Min VisibilityMiles, Max Wind SpeedMPH, Mean Wind SpeedMPH, Max Gust SpeedMPH,PrecipitationIn, CloudCover, Events, WindDirDegrees
2013-4-1,71,51,31,32,20,11,72,33,10,30.12,30.04,29.95,10,10,10,21,7,25,0.00,1,,244
2013-4-2,60,43,26,32,28,21,91,58,22,30.12,30.03,29.91,10,10,7,20,7,26,0.00,2,,132
2013-4-3,62,44,25,30,25,18,90,55,19,30.23,30.13,30.08,10,10,10,15,5,20,0.00,3,,235
2013-4-4,70,46,21,29,15,3,75,37,10,30.28,30.21,30.15,10,10,10,15,3,20,0.00,0,,307
2013-4-5,74,53,32,18,12,4,35,21,10,30.20,30.07,29.92,10,10,10,29,7,37,0.00,1,,243
2013-4-6,71,58,45,24,19,13,38,24,12,30.09,30.00,29.93,10,10,10,21,11,25,0.00,0,,243
2013-4-7,72,56,40,25,18,12,48,22,11,29.96,29.91,29.83,10,10,10,22,12,33,0.00,0,,266
2013-4-8,73,56,40,26,20,13,42,21,13,29.84,29.67,29.51,10,9,4,38,14,48,0.00,2,,207
2013-4-9,56,44,33,34,26,14,94,52,24,29.90,29.68,29.49,10,10,1,32,17,43,0.02,5,Rain-Snow-Thunderstorm,184
2013-4-10,49,36,24,30,24,18,91,68,38,29.99,29.94,29.89,10,9,1,17,8,24,0.01,6,Snow,211
2013-4-11,62,44,27,30,23,18,69,44,22,29.96,29.91,29.86,10,10,10,25,12,40,0.00,1,,309
2013-4-12,66,50,34,29,25,21,67,41,18,30.02,29.96,29.90,10,10,10,17,5,23,0.00,2,,248
2013-4-13,71,48,26,26,19,12,74,33,11,29.99,29.88,29.74,10,10,10,28,7,37,0.00,1,,259
2013-4-14,73,62,51,23,20,17,30,21,12,29.77,29.73,29.69,10,10,7,36,22,46,0.00,0,,259
2013-4-15,77,56,36,23,17,9,48,21,8,29.85,29.78,29.68,10,10,10,32,10,43,0.00,0,,240
2013-4-16,76,57,38,26,15,5,39,19,9,29.92,29.84,29.76,10,10,7,36,14,46,0.00,0,,175
2013-4-17,65,51,36,30,19,6,67,32,17,29.99,29.80,29.68,10,10,10,32,16,39,0.00,2,Rain,252
2013-4-18,47,38,28,16,5,-5,54,28,12,30.20,30.05,29.96,10,10,10,26,14,36,0.00,1,,289
2013-4-19,61,40,20,4,1,-6,39,20,9,30.29,30.17,30.03,10,10,10,23,9,30,0.00,0,,283
2013-4-20,65,48,30,17,7,-5,31,17,12,30.09,30.00,29.92,10,10,10,25,12,36,0.00,1,,291
2013-4-21,70,48,26,19,12,3,56,23,9,30.18,30.12,30.06,10,10,10,22,8,33,0.00,0,,297
2013-4-22,78,54,29,32,11,0,52,17,8,30.10,30.01,29.89,10,10,7,30,9,45,0.00,0,,268
2013-4-23,56,42,25,33,26,17,88,55,27,30.23,30.06,29.98,10,10,7,20,10,30,0.00,2,Rain,146
2013-4-24,69,40,12,20,16,9,86,46,12,30.26,30.19,30.08,10,10,10,17,5,21,0.00,0,,164
2013-4-25,74,56,37,32,24,15,53,33,14,30.25,30.12,29.96,10,10,4,32,11,45,0.00,1,,154
2013-4-26,73,55,37,32,23,4,61,32,8,30.32,30.18,30.09,10,10,10,22,11,29,0.00,1,,304
2013-4-27,73,50,28,29,15,-4,69,29,6,30.33,30.25,30.16,10,10,10,14,4,28,0.00,0,,324
2013-4-28,77,51,25,12,3,-6,30,14,7,30.18,30.10,30.00,10,10,10,16,4,24,0.00,0,,276
2013-4-29,82,56,30,18,9,-4,26,14,8,30.04,29.96,29.86,10,10,10,21,5,30,0.00,0,,283
2013-4-30,83,60,36,17,13,7,32,16,8,29.95,29.90,29.84,10,10,10,31,8,38,0.00,0,,282